Regional Weather Roundup
Issued by NWS Wakefield, VA

Home | Current Version | Previous Version | Graphics & Text | Print | Product List | Glossary On
Versions: 1 2 3 4 5 6 7 8 9 10 11 12 13 14 15 16 17 18 19 20 21 22 23 24 25 26 27 28 29 30 31 32 33 34 35 36 37 38 39 40 41 42 43 44 45 46 47 48 49 50
000
ASUS41 KAKQ 220510
RWRAKQ

REGIONAL WEATHER ROUNDUP
NATIONAL WEATHER SERVICE WAKEFIELD VA
100 AM EDT TUE JUL 22 2014

Note: "fair" indicates few or no clouds below 12,000 feet with no
significant weather and/or obstructions to visibility. * = Denotes
station may not report precipitation (e.g., rain,snow,etc.),
thunder or fog.

VAZ042-051-052>054-056-220600-
NORTHERN VIRGINIA

CITY           SKY/WX    TMP DP  RH WIND       PRES   REMARKS
WASH NATIONAL  PTCLDY    76  67  73 S6        30.18F
DULLES         PTCLDY    71  68  90 S5        30.18S
FORT BELVOIR   MOCLDY    70  68  94 SE1       30.18S
QUANTICO       CLOUDY    76  71  85 S14       30.19R
FREDERICKSBRG* MOCLDY    73  72  95 SE3       30.17S
STAFFORD*      MOCLDY    71  71 100 SE5       30.22S
WARRENTON      MOCLDY    72  72 100 SE3       30.18S
CULPEPER*      MOCLDY   N/A N/A N/A CALM      30.19S
MANASSAS*      MOCLDY    72  72 100 CALM      30.18S
LEESBURG*      PTCLDY    73  72  94 CALM      30.20R
WINCHESTER     PTCLDY    72  68  88 SE5       30.19R
$$

VAZ048-049-060>072-079>083-220600-
CENTRAL AND SOUTH CENTRAL VIRGINIA...AND NORTH CENTRAL NORTH CAROLINA

CITY           SKY/WX    TMP DP  RH WIND       PRES   REMARKS
RICHMOND       MOCLDY    72  69  90 E3        30.18S
CHESTERFIELD*  CLOUDY    72  63  73 SE3       30.20S
HANOVER        PTCLDY    70  69  97 CALM      30.20S
TAPPAHANNOCK*  PTCLDY    70  66  88 CALM      30.19S
CHARLOTTSVILLE CLOUDY    73  70  90 S7        30.19R
ORANGE*        CLOUDY    72  70  94 CALM      30.20S
LOUISA*        CLOUDY    73  70  88 S5        30.18S
FARMVILLE*     CLOUDY    73  72  94 CALM      30.16F
SOUTH HILL*    PTCLDY    73  73 100 CALM      30.23R FOG
ROANOKE RAPIDS FOG       64  63  94 CALM      30.17S VSB 1/4
RALEIGH        MOCLDY    73  70  90 CALM      30.16F FOG
$$

VAZ088>098-220600-
SOUTHEAST VIRGINIA

CITY           SKY/WX    TMP DP  RH WIND       PRES   REMARKS
NORFOLK        MOCLDY    74  69  85 CALM      30.17S
VIRGINIA BEACH CLOUDY    73  70  90 SE5       30.16S
NORFOLK NAVAL  MOCLDY    74  69  85 CALM      30.19R
WEST POINT*    CLOUDY    74  70  88 CALM      30.19F
NEWPORT NEWS   MOCLDY    72  68  87 CALM      30.18R
LANGLEY AFB    MOCLDY    72  72 100 E2        30.17R
FORT EUSTIS    MOCLDY    73  73 100 N3        30.17R
WILLIAMSBURG*  PTCLDY    73  72  94 CALM      30.19S
FRANKLIN*      PTCLDY    70 N/A N/A CALM      30.17S
WAKEFIELD      PTCLDY    70  67  90 CALM      30.18S
$$

VAZ020-022-025-037-045-220600-
WESTERN AND SOUTHWEST VIRGINIA

CITY           SKY/WX    TMP DP  RH WIND       PRES   REMARKS
STAUNTON*      CLOUDY    72  68  88 E5        30.22R
HOT SPRINGS VA FOG       63  61  94 S6        30.32S VSB 3/4
LYNCHBURG      CLOUDY    71  70  96 CALM      30.20S
DANVILLE       CLOUDY    73  71  93 CALM      30.17S FOG
MARTINSVILLE   CLOUDY    71  70  98 CALM      30.20S FOG
ROANOKE        CLOUDY    72  68  87 CALM      30.21S
BLACKSBURG     CLOUDY    70  70 100 CALM      30.25R
DUBLIN*        CLOUDY    70  69  98 CALM      30.24R
MARION*        PTCLDY    67  67 100 CALM      30.25S
HILLSVILLE*    CLOUDY    67  66  97 E3        30.24S
RICHLANDS*     MOCLDY    71  65  83 SE3       30.22R
WISE*          CLEAR     70  66  88 S5        30.22S
ABINGDON*      PTCLDY    71  66  83 E6        30.19R
$$

MDZ021>025-VAZ099-100-220600-
SOUTHERN MARYLAND AND THE DELMARVA PENINSULA

CITY           SKY/WX    TMP DP  RH WIND       PRES   REMARKS
PATUXENT RIVER PTCLDY    72  68  87 S3        30.18S
BAY BRIDGE APT   N/A     73  70  88 S5        30.18S
LEONARDTOWN    MOCLDY    70  66  88 MISG      30.20S
DOVER          CLEAR     68  66  96 S6        30.17S
GEORGETOWN     PTCLDY    66  63  90 VRB5      30.19S
EASTON         MOCLDY    74  72  95 S5        30.22S
CAMBRIDGE      MOCLDY    72  68  88 CALM      30.18S
SALISBURY      NOT AVBL
OCEAN CITY     MOCLDY    65  63  93 CALM      30.18F
WALLOPS ISLAND MOCLDY    72  69  90 CALM      30.18F
ACCOMACK*        N/A     68  64  88 CALM      30.17S
$$

NCZ012>017-030>032-220600-
EASTERN NORTH CAROLINA

CITY           SKY/WX    TMP DP  RH WIND       PRES   REMARKS
ELIZABETH CITY CLOUDY    74  71  91 NE6       30.16F
AHOSKIE*       PTCLDY    70  68  93 N3        30.17S
EDENTON*       CLOUDY    72  71  97 NE3       30.15F
CURRITUCK*     CLOUDY    75  70  83 E5        30.17F
KILL DEVIL HLS CLOUDY    75  73  93 E3        30.15S
MANTEO         NOT AVBL
CAPE HATTERAS  MOCLDY    76  74  93 E6        30.14F
GOLDSBORO      CLOUDY    74  74  99 NE7       30.13F
WASHINGTON     CLOUDY    73  69  88 E3        30.15F
GREENVILLE     MOCLDY    72  72 100 NE5       30.16F
NEW BERN       MOCLDY    76  73  91 NE5       30.15F
WILMINGTON     MOCLDY    75  73  93 N6        30.12S
$$

VAZ048-220600-
ELSEWHERE

CITY           SKY/WX    TMP DP  RH WIND       PRES   REMARKS
HARRISBURG PA  PTCLDY    74  66  76 VRB3      30.17S
BALTIMORE      PTCLDY    71  67  87 CALM      30.17F
ANNAPOLIS      MOCLDY    74  68  81 S3        30.17F
ANDREWS AFB    PTCLDY    70  68  93 SE5       30.18F
WILMINGTON DE  CLEAR     71  64  78 CALM      30.19S
PHILADELPHIA   CLEAR     72  59  63 W5        30.19R
WILDWOOD NJ*   CLEAR     66  61  82 CALM      30.20S
ATLANTIC CITY  CLEAR     65  63  93 CALM      30.18S
HENDERSON NC   CLOUDY    72  70  95 CALM      30.18S FOG
GREENSBORO     MOCLDY    72  69  90 CALM      30.17S
ROCKY MOUNT    CLOUDY    73  70  90 CALM      30.16F
FAYETTEVILLE   CLOUDY    73  71  93 NE5       30.14S
CHARLOTTE      CLOUDY    73  68  84 E7        30.15S
$$

VAZ100-220600-
MARINE

STATION/POSITION TIME  TEMP    WIND        PRES    WAVE   SWELL
                       AIR SEA DIR/SP/G            HT/PER HT/PER
                 (UTC) (F)     (DEG/KT/KT) (MB)    (FT/S) (FT/S)
44066 TX TWR #4  0500   69 72  260/  2/  2 1021.6F   3/ 8   3/ 8
CAPE MAY NJ      0500   69 74  230/  4/  4 1022.2R
LEWES DE         0500   68 69  230/  1/  1 1022.1R
15NM E FENWICK I 0500   73 75              1022.2R   3/ 6
OCEAN-CITY-INLET 0500   70 71  250/  2/  2 1021.7S
WACHAPREAGUE VA  0500   73 79   90/  2/  3 1021.6R
THOMAS POINT MD  0500   75 80  170/ 13/ 14 1022.3F
GOOSES REEF MD   0500   76     200/ 10/ 14 1022.3S
COVE POINT MD    0500   75     180/ 11/ 13 1022.0R
SOLOMONS ISLAND  0500      80                N/A
BISHOPS HEAD MD  0500   75 79  170/  7/ 11 1021.5F
PINEY POINT MD   0500          180/  8/  9   N/A
POTOMAC MD       0500   75     190/  8/ 10 1021.2S
CAMBRIDGE MD     0500   72 80  160/  3/  5 1022.0R
LEWISETTA VA     0500   74 80  200/  2/  2 1021.7S
RAPPAHANNOCK LGT 0500          110/  4/  4 1022.4R
STINGRAY PT      0500   75     140/  6/  8 1021.1R
YORK RVR RNG VA  0500   75     120/  7/  8 1021.4S
YORKTOWN VA      0500   75 80  130/  4/  5 1021.6S
JAMESTOWN VA     0500   73      80/  2/  4   N/A
DOMINION TERM VA 0500   75     100/  5/  6 1021.8S
KIPTOPEKE VA     0500      78   90/  2/  3   N/A
CHES BAY BRIDGE  0500   75 77   80/  4/  6 1021.0F
CAPE HENRY VA    0500   74      90/  5/  6 1020.4F
WILLOUBY STN VA  0500          100/  4/  4 1021.0S
S CRANEY ISL VA  0500           90/  3/  4 1021.7R
CAPE HENRY BUOY  0500      76                N/A     3/ 8
1ST LANDING BUOY 0500   75      70/  4/  4 1021.3F
CAPE CHARLES BUO 0500      74                N/A     2/ 8
OFFSHORE WE BUOY 0400      76                N/A     3/ 7
64NM E OF VA BCH 0500   76 77  110/  6/  8 1021.1S   3/ 7   3/ 7
DUCK PIER NC     0500   75 76   80/  6/  7 1020.5F
44056 DUCK FRF   0400                        N/A     2/ 7
OREGON INLET NC  0500   76 78   60/  6/  8 1021.0S
HATTERAS NC      0500   77 81   70/  3/  5 1020.9S
DIAMOND SHLS NC  0500          VRB  6/  8  1020.4F   3/ 8   3/ 8
CAPE LOOKOUT NC  0400   79     160/  5/  5 1020.0R
$$



USA.gov is the U.S. government's official web portal to all federal, state and local government web resources and services.